Location: *
(49.6619°S, 177.4603°W)
Time: 05:44:26
(UTC+00:00)

Cosmos 1763 Rocket - Pass Details

Date: 31 January 2023
Orbit: 733 x 778 km, 74.0° (Epoch: 01 April)

Event Time Altitude Azimuth Distance (km) Brightness Sun altitude
Rises 09:06:11 0° 341° (NNW) 3,161 6.4 -12.4°
Reaches altitude 10° 09:08:31 10° 341° (NNW) 2,247 5.6 -12.6°
Maximum altitude 09:13:36 84° 67° (ENE) 758 3.4 -13.2°
Drops below altitude 10° 09:18:48 10° 155° (SSE) 2,289 6.3 -13.7°
Sets 09:21:11 0° 155° (SSE) 3,225 7.1 -14.0°
